Regional Weather Roundup
Issued by NWS

Home | Current Version | Previous Version | Graphics & Text | Print | Product List | Glossary On
Versions: 1 2 3 4 5 6 7 8 9 10 11 12 13 14 15 16 17 18 19 20 21 22 23 24 25 26 27 28 29 30 31 32 33 34 35 36 37 38 39 40 41 42 43 44 45 46 47 48 49 50
000
ASUS43 KFSD 201310
RWRSD

WEATHER ROUNDUP FOR SOUTH DAKOTA
NATIONAL WEATHER SERVICE SIOUX FALLS SD
700 AM CST MON FEB 20 2017

NOTE: "FAIR" INDICATES FEW OR NO CLOUDS BELOW 12,000 FEET WITH NO
SIGNIFICANT WEATHER AND/OR OBSTRUCTIONS TO VISIBILITY.


SDZ001>005-009-010-012>017-201400-
NORTHWEST AND NORTH CENTRAL SOUTH DAKOTA

CITY           SKY/WX    TMP DP  RH WIND       PRES   REMARKS
BUFFALO          N/A     43  36  76 NW17      29.68R
FAITH            N/A     42  39  89 NW17      29.71R
MOBRIDGE       CLOUDY    41  34  76 NW21G30   29.59R
$$

SDZ012>016-024>037-041>051-057-063-072>074-201400-
SOUTHWEST AND SOUTH CENTRAL SOUTH DAKOTA

CITY           SKY/WX    TMP DP  RH WIND       PRES   REMARKS
RAPID CTY ARPT CLOUDY    43  38  82 NW15      29.76R
PIERRE         CLOUDY    45  37  73 NW23      29.59R
CUSTER         CLOUDY    39  26  59 NW12G25   29.77R
ELLSWORTH AFB  CLOUDY    43  40  91 NW12      29.76R
PHILIP         LGT RAIN  44  42  93 NW20G28   29.69R
PINE RIDGE     LGT RAIN  43  37  79 NW6       29.79R
SPEARFISH      FAIR      43  37  81 W10       29.79S
WINNER         FAIR      52  40  63 W13       29.62R
$$

SDZ004>011-016>023-039-040-201400-
NORTHEAST SOUTH DAKOTA

CITY           SKY/WX    TMP DP  RH WIND       PRES   REMARKS
ABERDEEN       LGT RAIN  49  46  90 S9        29.62R FOG
WATERTOWN      CLOUDY    51  50  96 S16G25    29.65R FOG
BROOKINGS      LGT RAIN  52  51  97 S14       29.68R FOG
SISSETON         N/A     53  51  93 S16G25    29.61S
$$

SDZ017-020-022-023-036>040-048>070-201400-
SOUTHEAST SOUTH DAKOTA

CITY           SKY/WX    TMP DP  RH WIND       PRES   REMARKS
SIOUX FALLS    LGT RAIN  54  54 100 S14       29.71R FOG
HURON          CLOUDY    52  51  97 SE15G24   29.62R
CHAMBERLAIN    MOCLDY    54  51  89 S12       29.58F
MITCHELL       CLOUDY    53  52  96 S14       29.65R FOG
YANKTON        CLOUDY    54  50  87 SE10      29.66F
$$

ABBREVIATIONS USED IN REMARKS
   TC - TEMPERATURE IN CELSIUS
  WCI - WIND CHILL INDEX
   HX - HEAT INDEX
  VSB - VISIBILITY




USA.gov is the U.S. government's official web portal to all federal, state and local government web resources and services.